OMA291 OOMS-VOCL

Flight info

Callsign OMA291
Flight time 2h 48m
Altitude 35000
Route EMURU M300 MOLRU
Aircraft B38M/M-SDE1FGHILORVWXY/HB1

Departure

Time 2026-05-04 21:33
Airport Muscat International Airport (OOMS)

Arrival

Time 2026-05-05 00:21
Airport Calicut International Airport (VOCL)
Time Latitude Longitude Altitude Speed Heading
2026-05-04 20:51 23.60172 58.28468 47 ft 0 kts 175°
2026-05-04 21:06 23.60173 58.28468 47 ft 0 kts 175°
2026-05-04 21:17 23.60175 58.28467 47 ft 2 kts 175°
2026-05-04 21:17 23.60201 58.28465 46 ft 4 kts 174°
2026-05-04 21:18 23.60227 58.28461 45 ft 4 kts 171°
2026-05-04 21:18 23.60253 58.28454 46 ft 4 kts 151°
2026-05-04 21:18 23.60265 58.28445 46 ft 4 kts 67°
2026-05-04 21:18 23.60283 58.28452 46 ft 2 kts
2026-05-04 21:19 23.60282 58.28452 46 ft 2 kts
2026-05-04 21:23 23.60290 58.28452 47 ft 2 kts
2026-05-04 21:23 23.60308 58.28454 47 ft 3 kts
2026-05-04 21:24 23.60337 58.28452 47 ft 5 kts 356°
2026-05-04 21:24 23.60376 58.28449 47 ft 6 kts 354°
2026-05-04 21:24 23.60429 58.28443 47 ft 9 kts 354°
2026-05-04 21:24 23.60505 58.28434 45 ft 12 kts 346°
2026-05-04 21:25 23.60535 58.28357 47 ft 13 kts 265°
2026-05-04 21:25 23.60527 58.28255 47 ft 14 kts 265°
2026-05-04 21:25 23.60518 58.28142 47 ft 16 kts 265°
2026-05-04 21:25 23.60507 58.28020 47 ft 17 kts 264°
2026-05-04 21:26 23.60495 58.27889 47 ft 18 kts 264°
2026-05-04 21:26 23.60485 58.27749 47 ft 19 kts 267°
2026-05-04 21:26 23.60474 58.27605 47 ft 19 kts 264°
2026-05-04 21:26 23.60461 58.27456 47 ft 20 kts 265°
2026-05-04 21:27 23.60452 58.27330 47 ft 17 kts 264°
2026-05-04 21:27 23.60428 58.27213 44 ft 15 kts 220°
2026-05-04 21:27 23.60325 58.27207 47 ft 16 kts 175°
2026-05-04 21:27 23.60212 58.27219 45 ft 17 kts 174°
2026-05-04 21:28 23.60131 58.27228 47 ft 18 kts 174°
2026-05-04 21:28 23.60005 58.27243 47 ft 19 kts 173°
2026-05-04 21:28 23.59874 58.27255 45 ft 20 kts 180°
2026-05-04 21:28 23.59734 58.27263 47 ft 20 kts 175°
2026-05-04 21:29 23.59607 58.27275 44 ft 19 kts 175°
2026-05-04 21:29 23.59507 58.27246 45 ft 15 kts 255°
2026-05-04 21:29 23.59498 58.27130 47 ft 16 kts 264°
2026-05-04 21:29 23.59487 58.27005 47 ft 17 kts 266°
2026-05-04 21:30 23.59477 58.26871 47 ft 18 kts 265°
2026-05-04 21:30 23.59466 58.26731 44 ft 16 kts 265°
2026-05-04 21:30 23.59392 58.26678 44 ft 13 kts 176°
2026-05-04 21:30 23.59296 58.26686 45 ft 14 kts 175°
2026-05-04 21:31 23.59175 58.26776 47 ft 12 kts 85°
2026-05-04 21:31 23.59178 58.26818 47 ft 0 kts 85°
2026-05-04 21:31 23.59180 58.26836 44 ft 8 kts 84°
2026-05-04 21:32 23.59201 58.27103 48 ft 69 kts 85°
2026-05-04 21:32 23.59262 58.27850 45 ft 129 kts 85°
2026-05-04 21:32 23.59356 58.29018 55 ft 176 kts 85°
2026-05-04 21:32 23.59473 58.30390 506 ft 188 kts 85°
2026-05-04 21:33 23.59608 58.31873 1005 ft 203 kts 85°
2026-05-04 21:33 23.59737 58.33387 1697 ft 202 kts 86°
2026-05-04 21:33 23.59873 58.35005 1976 ft 228 kts 86°
2026-05-04 21:33 23.59998 58.36793 2431 ft 244 kts 94°
2026-05-04 21:34 23.59413 58.38500 3054 ft 246 kts 131°
2026-05-04 21:34 23.58018 58.39615 3555 ft 257 kts 159°
2026-05-04 21:34 23.56276 58.40213 4137 ft 267 kts 162°
2026-05-04 21:34 23.54516 58.40854 4812 ft 272 kts 161°
2026-05-04 21:35 23.52712 58.41520 5549 ft 276 kts 161°
2026-05-04 21:35 23.50876 58.42204 6279 ft 281 kts 161°
2026-05-04 21:35 23.49014 58.42899 7007 ft 284 kts 161°
2026-05-04 21:35 23.47122 58.43605 7699 ft 289 kts 161°
2026-05-04 21:36 23.45209 58.44319 8417 ft 293 kts 162°
2026-05-04 21:36 23.43266 58.45045 9145 ft 297 kts 162°
2026-05-04 21:36 23.41300 58.45779 9846 ft 301 kts 162°
2026-05-04 21:36 23.39293 58.46529 10401 ft 311 kts 162°
2026-05-04 21:37 23.37181 58.47329 10665 ft 331 kts 161°
2026-05-04 21:37 23.34942 58.48184 10886 ft 351 kts 161°
2026-05-04 21:37 23.32578 58.49085 11132 ft 367 kts 161°
2026-05-04 21:37 23.30155 58.50003 11533 ft 377 kts 161°
2026-05-04 21:38 23.27640 58.50945 12174 ft 379 kts 161°
2026-05-04 21:38 23.25129 58.51882 12773 ft 383 kts 161°
2026-05-04 21:38 23.22592 58.52823 13342 ft 388 kts 161°
2026-05-04 21:38 23.20025 58.53778 13881 ft 392 kts 161°
2026-05-04 21:39 23.17465 58.54728 14398 ft 395 kts 161°
2026-05-04 21:39 23.14846 58.55697 14924 ft 399 kts 161°
2026-05-04 21:39 23.12202 58.56676 15356 ft 403 kts 161°
2026-05-04 21:39 23.09542 58.57662 15846 ft 405 kts 160°
2026-05-04 21:40 23.06849 58.58661 16284 ft 410 kts 160°
2026-05-04 21:40 23.04144 58.59661 16779 ft 412 kts 160°
2026-05-04 21:40 23.01409 58.60674 17228 ft 416 kts 160°
2026-05-04 21:40 22.98655 58.61692 17688 ft 420 kts 160°
2026-05-04 21:41 22.95881 58.62717 18147 ft 423 kts 160°
2026-05-04 21:41 22.93084 58.63751 18541 ft 426 kts 160°
2026-05-04 21:41 22.90308 58.64775 18960 ft 427 kts 161°
2026-05-04 21:41 22.87448 58.65831 19305 ft 430 kts 161°
2026-05-04 21:42 22.84646 58.66865 19733 ft 431 kts 161°
2026-05-04 21:42 22.81806 58.67912 20127 ft 433 kts 161°
2026-05-04 21:42 22.78944 58.68967 20526 ft 435 kts 161°
2026-05-04 21:42 22.76052 58.70031 20914 ft 437 kts 161°
2026-05-04 21:43 22.73210 58.71078 21288 ft 439 kts 162°
2026-05-04 21:43 22.70309 58.72146 21659 ft 441 kts 162°
2026-05-04 21:43 22.67403 58.73214 22036 ft 443 kts 162°
2026-05-04 21:43 22.64476 58.74290 22397 ft 444 kts 162°
2026-05-04 21:44 22.61541 58.75368 22762 ft 446 kts 162°
2026-05-04 21:44 22.58593 58.76451 23097 ft 449 kts 162°
2026-05-04 21:44 22.55629 58.77539 23469 ft 449 kts 162°
2026-05-04 21:44 22.52661 58.78628 23732 ft 452 kts 163°
2026-05-04 21:45 22.49672 58.79725 24004 ft 454 kts 163°
2026-05-04 21:45 22.46675 58.80822 24280 ft 456 kts 163°
2026-05-04 21:45 22.43669 58.81923 24539 ft 458 kts 163°
2026-05-04 21:45 22.40638 58.83033 24799 ft 460 kts 163°
2026-05-04 21:46 22.37638 58.84131 25063 ft 462 kts 163°
2026-05-04 21:46 22.34591 58.85245 25330 ft 464 kts 163°
2026-05-04 21:46 22.31528 58.86365 25582 ft 466 kts 163°
2026-05-04 21:46 22.28443 58.87492 25836 ft 468 kts 163°
2026-05-04 21:47 22.25388 58.88738 26079 ft 472 kts 155°
2026-05-04 21:47 22.22646 58.90700 26348 ft 475 kts 139°
2026-05-04 21:47 22.20368 58.93297 26582 ft 479 kts 131°
2026-05-04 21:47 22.18191 58.96030 26791 ft 482 kts 131°
2026-05-04 21:48 22.16023 58.98792 27049 ft 483 kts 130°
2026-05-04 21:48 22.13855 59.01582 27284 ft 485 kts 130°
2026-05-04 21:48 22.11688 59.04386 27514 ft 488 kts 130°
2026-05-04 21:48 22.09512 59.07202 27722 ft 490 kts 130°
2026-05-04 21:49 22.07321 59.10037 27955 ft 492 kts 130°
2026-05-04 21:49 22.05149 59.12846 28176 ft 494 kts 130°
2026-05-04 21:49 22.02945 59.15696 28390 ft 496 kts 130°
2026-05-04 21:49 22.00726 59.18562 28620 ft 498 kts 130°
2026-05-04 21:50 21.98506 59.21430 28818 ft 500 kts 130°
2026-05-04 21:50 21.96269 59.24316 29045 ft 502 kts 130°
2026-05-04 21:50 21.94029 59.27207 29249 ft 504 kts 130°
2026-05-04 21:50 21.91774 59.30113 29456 ft 505 kts 130°
2026-05-04 21:51 21.89519 59.33020 29657 ft 507 kts 130°
2026-05-04 21:51 21.87246 59.35948 29823 ft 510 kts 130°
2026-05-04 21:51 21.84971 59.38875 30060 ft 509 kts 130°
2026-05-04 21:51 21.82700 59.41797 30320 ft 509 kts 130°
2026-05-04 21:52 21.80426 59.44721 30590 ft 508 kts 130°
2026-05-04 21:52 21.78187 59.47597 30858 ft 507 kts 130°
2026-05-04 21:52 21.75926 59.50502 31140 ft 506 kts 131°
2026-05-04 21:52 21.73666 59.53403 31410 ft 505 kts 131°
2026-05-04 21:53 21.71413 59.56294 31695 ft 504 kts 131°
2026-05-04 21:53 21.69163 59.59178 31968 ft 503 kts 131°
2026-05-04 21:53 21.66917 59.62057 32243 ft 502 kts 131°
2026-05-04 21:53 21.64669 59.64937 32506 ft 501 kts 131°
2026-05-04 21:54 21.62430 59.67803 32804 ft 500 kts 131°
2026-05-04 21:54 21.60197 59.70661 33101 ft 498 kts 131°
2026-05-04 21:54 21.57965 59.73516 33389 ft 497 kts 131°
2026-05-04 21:54 21.55741 59.76355 33671 ft 496 kts 132°
2026-05-04 21:55 21.53517 59.79182 33924 ft 495 kts 132°
2026-05-04 21:55 21.51298 59.82002 34158 ft 494 kts 132°
2026-05-04 21:55 21.49082 59.84817 34387 ft 493 kts 132°
2026-05-04 21:55 21.46865 59.87633 34606 ft 492 kts 132°
2026-05-04 21:56 21.44653 59.90440 34752 ft 493 kts 132°
2026-05-04 21:56 21.40265 59.96004 34743 ft 489 kts 132°
2026-05-04 21:57 21.35864 60.01580 34747 ft 489 kts 132°
2026-05-04 21:57 21.31460 60.07153 34762 ft 489 kts 132°
2026-05-04 21:58 21.27059 60.12717 34764 ft 489 kts 132°
2026-05-04 21:58 21.22660 60.18285 34767 ft 489 kts 132°
2026-05-04 21:59 21.18260 60.23855 34763 ft 490 kts 132°
2026-05-04 21:59 21.13860 60.29419 34757 ft 489 kts 132°
2026-05-04 22:00 21.09458 60.34980 34756 ft 489 kts 132°
2026-05-04 22:00 21.05054 60.40538 34769 ft 489 kts 132°
2026-05-04 22:01 21.00675 60.46059 34770 ft 489 kts 132°
2026-05-04 22:01 20.96266 60.51613 34768 ft 490 kts 132°
2026-05-04 22:02 20.91845 60.57175 34776 ft 490 kts 132°
2026-05-04 22:02 20.87429 60.62726 34771 ft 490 kts 132°
2026-05-04 22:03 20.83011 60.68273 34774 ft 490 kts 132°
2026-05-04 22:03 20.78587 60.73823 34774 ft 490 kts 132°
2026-05-04 22:04 20.74157 60.79375 34782 ft 491 kts 132°
2026-05-04 22:04 20.69726 60.84923 34776 ft 490 kts 131°
2026-05-04 22:05 20.65300 60.90460 34773 ft 490 kts 131°
2026-05-04 22:05 20.61010 60.96117 34764 ft 491 kts 123°
2026-05-04 22:06 20.57331 61.02273 34772 ft 492 kts 123°
2026-05-04 22:06 20.53682 61.08382 34777 ft 492 kts 123°
2026-05-04 22:07 20.49996 61.14549 34779 ft 492 kts 123°
2026-05-04 22:07 20.46313 61.20704 34778 ft 492 kts 123°
2026-05-04 22:08 20.42633 61.26848 34777 ft 492 kts 123°
2026-05-04 22:08 20.38947 61.32996 34783 ft 492 kts 123°
2026-05-04 22:09 20.35279 61.39106 34782 ft 492 kts 123°
2026-05-04 22:09 20.31588 61.45249 34785 ft 492 kts 123°
2026-05-04 22:10 20.27900 61.51382 34787 ft 492 kts 123°
2026-05-04 22:10 20.24202 61.57522 34787 ft 492 kts 124°
2026-05-04 22:11 20.20505 61.63655 34789 ft 492 kts 124°
2026-05-04 22:11 20.16807 61.69783 34785 ft 492 kts 124°
2026-05-04 22:12 20.13107 61.75909 34787 ft 492 kts 124°
2026-05-04 22:12 20.09401 61.82037 34787 ft 492 kts 124°
2026-05-04 22:13 20.05697 61.88158 34790 ft 492 kts 124°
2026-05-04 22:13 20.02014 61.94235 34788 ft 492 kts 124°
2026-05-04 22:14 19.98911 61.99352 34789 ft 492 kts 124°
2026-05-04 22:14 19.94603 62.06448 34788 ft 491 kts 124°
2026-05-04 22:15 19.90893 62.12552 34794 ft 492 kts 124°
2026-05-04 22:15 19.87781 62.17666 34793 ft 491 kts 124°
2026-05-04 22:16 19.84091 62.23726 34796 ft 492 kts 124°
2026-05-04 22:16 19.80376 62.29821 34790 ft 492 kts 124°
2026-05-04 22:17 19.76649 62.35928 34792 ft 492 kts 124°
2026-05-04 22:17 19.72929 62.42019 34792 ft 492 kts 124°
2026-05-04 22:18 19.69207 62.48106 34791 ft 492 kts 124°
2026-05-04 22:18 19.65499 62.54163 34795 ft 492 kts 124°
2026-05-04 22:19 19.61767 62.60254 34793 ft 493 kts 124°
2026-05-04 22:19 19.58032 62.66345 34790 ft 493 kts 124°
2026-05-04 22:20 19.54297 62.72428 34789 ft 491 kts 124°
2026-05-04 22:20 19.50563 62.78504 34789 ft 491 kts 124°
2026-05-04 22:21 19.46824 62.84581 34795 ft 491 kts 124°
2026-05-04 22:21 19.43088 62.90649 34798 ft 492 kts 124°
2026-05-04 22:22 19.39349 62.96715 34794 ft 492 kts 124°
2026-05-04 22:22 19.35606 63.02781 34799 ft 492 kts 124°
2026-05-04 22:23 19.31890 63.08798 34789 ft 492 kts 124°
2026-05-04 22:23 19.28148 63.14850 34795 ft 490 kts 124°
2026-05-04 22:24 19.24409 63.20892 34797 ft 490 kts 124°
2026-05-04 22:24 19.20666 63.26934 34798 ft 490 kts 124°
2026-05-04 22:25 19.16921 63.32973 34802 ft 490 kts 124°
2026-05-04 22:25 19.13175 63.39010 34801 ft 490 kts 124°
2026-05-04 22:26 19.09430 63.45040 34805 ft 490 kts 124°
2026-05-04 22:26 19.05684 63.51065 34805 ft 489 kts 124°
2026-05-04 22:27 19.01972 63.57029 34804 ft 489 kts 124°
2026-05-04 22:27 18.98229 63.63033 34810 ft 489 kts 124°
2026-05-04 22:28 18.94490 63.69031 34808 ft 489 kts 124°
2026-05-04 22:28 18.90746 63.75032 34808 ft 489 kts 124°
2026-05-04 22:29 18.87003 63.81025 34813 ft 489 kts 124°
2026-05-04 22:29 18.83258 63.87017 34809 ft 489 kts 124°
2026-05-04 22:30 18.79515 63.92999 34813 ft 488 kts 124°
2026-05-04 22:30 18.75799 63.98932 34814 ft 488 kts 124°
2026-05-04 22:31 18.72057 64.04900 34817 ft 488 kts 124°
2026-05-04 22:31 18.68315 64.10864 34818 ft 487 kts 124°
2026-05-04 22:32 18.64569 64.16827 34818 ft 487 kts 124°
2026-05-04 22:32 18.60825 64.22782 34818 ft 487 kts 124°
2026-05-04 22:33 18.57080 64.28734 34816 ft 487 kts 124°
2026-05-04 22:33 18.53337 64.34677 34817 ft 486 kts 124°
2026-05-04 22:34 18.49588 64.40623 34821 ft 487 kts 124°
2026-05-04 22:34 18.45843 64.46557 34820 ft 486 kts 124°
2026-05-04 22:35 18.42087 64.52504 34825 ft 486 kts 124°
2026-05-04 22:35 18.38361 64.58397 34821 ft 486 kts 124°
2026-05-04 22:36 18.34611 64.64323 34826 ft 486 kts 124°
2026-05-04 22:36 18.30861 64.70244 34825 ft 486 kts 124°
2026-05-04 22:37 18.27106 64.76167 34827 ft 486 kts 124°
2026-05-04 22:37 18.23355 64.82077 34826 ft 485 kts 124°
2026-05-04 22:38 18.19598 64.87993 34827 ft 486 kts 124°
2026-05-04 22:38 18.15867 64.93862 34827 ft 485 kts 124°
2026-05-04 22:39 18.12106 64.99772 34832 ft 486 kts 124°
2026-05-04 22:39 18.08341 65.05684 34827 ft 486 kts 124°
2026-05-04 22:40 18.04582 65.11581 34827 ft 485 kts 124°
2026-05-04 22:40 18.00825 65.17471 34827 ft 484 kts 124°
2026-05-04 22:41 17.97097 65.23308 34831 ft 485 kts 124°
2026-05-04 22:41 17.93341 65.29184 34832 ft 484 kts 124°
2026-05-04 22:42 17.89581 65.35062 34830 ft 485 kts 124°
2026-05-04 22:42 17.85822 65.40932 34834 ft 484 kts 124°
2026-05-04 22:43 17.82063 65.46798 34835 ft 485 kts 124°
2026-05-04 22:43 17.78305 65.52657 34834 ft 482 kts 124°
2026-05-04 22:44 17.74554 65.58499 34832 ft 484 kts 124°
2026-05-04 22:44 17.70796 65.64349 34844 ft 482 kts 124°
2026-05-04 22:45 17.67038 65.70192 34841 ft 484 kts 124°
2026-05-04 22:45 17.61456 65.78927 34838 ft 482 kts 123°
2026-05-04 22:46 17.57812 65.84866 34840 ft 484 kts 123°
2026-05-04 22:46 17.54162 65.90785 34840 ft 482 kts 123°
2026-05-04 22:47 17.50514 65.96695 34847 ft 483 kts 123°
2026-05-04 22:47 17.46870 66.02590 34839 ft 482 kts 123°
2026-05-04 22:48 17.43218 66.08496 34842 ft 483 kts 123°
2026-05-04 22:48 17.39571 66.14387 34833 ft 481 kts 123°
2026-05-04 22:49 17.35942 66.20246 34846 ft 483 kts 123°
2026-05-04 22:49 17.32285 66.26143 34842 ft 482 kts 123°
2026-05-04 22:50 17.28624 66.32042 34848 ft 484 kts 123°
2026-05-04 22:50 17.24965 66.37933 34840 ft 482 kts 123°
2026-05-04 22:51 17.21327 66.43785 34845 ft 483 kts 123°
2026-05-04 22:51 17.17642 66.49707 34837 ft 482 kts 123°
2026-05-04 22:52 17.13999 66.55558 34844 ft 484 kts 123°
2026-05-04 22:52 17.10329 66.61445 34843 ft 482 kts 123°
2026-05-04 22:53 17.06655 66.67334 34842 ft 484 kts 123°
2026-05-04 22:53 17.02985 66.73213 34841 ft 482 kts 123°
2026-05-04 22:54 16.99336 66.79052 34846 ft 483 kts 123°
2026-05-04 22:54 16.95670 66.84914 34841 ft 480 kts 123°
2026-05-04 22:55 16.92000 66.90777 34848 ft 483 kts 123°
2026-05-04 22:55 16.88323 66.96645 34845 ft 481 kts 123°
2026-05-04 22:56 16.84647 67.02509 34850 ft 484 kts 123°
2026-05-04 22:56 16.80989 67.08338 34847 ft 481 kts 123°
2026-05-04 22:57 16.77308 67.14198 34847 ft 484 kts 123°
2026-05-04 22:57 16.73626 67.20056 34845 ft 479 kts 123°
2026-05-04 22:58 16.69965 67.25875 34850 ft 481 kts 123°
2026-05-04 22:58 16.66284 67.31721 34845 ft 480 kts 123°
2026-05-04 22:59 16.62613 67.37547 34846 ft 482 kts 123°
2026-05-04 22:59 16.58954 67.43350 34844 ft 480 kts 123°
2026-05-04 23:00 16.55278 67.49173 34845 ft 482 kts 123°
2026-05-04 23:00 16.51594 67.55004 34847 ft 480 kts 123°
2026-05-04 23:01 16.47912 67.60829 34843 ft 483 kts 123°
2026-05-04 23:01 16.44847 67.65673 34842 ft 480 kts 123°
2026-05-04 23:02 16.41175 67.71472 34840 ft 480 kts 123°
2026-05-04 23:02 16.37491 67.77286 34841 ft 480 kts 123°
2026-05-04 23:03 16.33814 67.83086 34843 ft 480 kts 123°
2026-05-04 23:03 16.30130 67.88892 34843 ft 480 kts 123°
2026-05-04 23:04 16.26461 67.94684 34845 ft 479 kts 122°
2026-05-04 23:04 16.22807 68.00500 34841 ft 480 kts 123°
2026-05-04 23:05 16.19180 68.06265 34842 ft 479 kts 123°
2026-05-04 23:05 16.15535 68.12053 34842 ft 478 kts 123°
2026-05-04 23:06 16.11892 68.17834 34841 ft 477 kts 123°
2026-05-04 23:06 16.08241 68.23623 34843 ft 479 kts 123°
2026-05-04 23:07 16.04595 68.29401 34838 ft 478 kts 123°
2026-05-04 23:07 16.00961 68.35153 34843 ft 479 kts 123°
2026-05-04 23:08 15.97311 68.40928 34842 ft 478 kts 123°
2026-05-04 23:08 15.93650 68.46714 34845 ft 479 kts 123°
2026-05-04 23:09 15.89996 68.52486 34839 ft 477 kts 122°
2026-05-04 23:09 15.86338 68.58259 34846 ft 478 kts 123°
2026-05-04 23:10 15.82683 68.64022 34843 ft 477 kts 122°
2026-05-04 23:10 15.79055 68.69740 34844 ft 478 kts 123°
2026-05-04 23:11 15.75393 68.75504 34843 ft 477 kts 122°
2026-05-04 23:11 15.71733 68.81263 34841 ft 478 kts 123°
2026-05-04 23:12 15.68068 68.87026 34843 ft 478 kts 123°
2026-05-04 23:12 15.64399 68.92790 34840 ft 479 kts 123°
2026-05-04 23:13 15.60751 68.98514 34841 ft 477 kts 123°
2026-05-04 23:13 15.57097 69.04246 34846 ft 477 kts 122°
2026-05-04 23:14 15.53435 69.09984 34845 ft 477 kts 123°
2026-05-04 23:14 15.49774 69.15719 34842 ft 477 kts 122°
2026-05-04 23:15 15.46109 69.21454 34847 ft 477 kts 123°
2026-05-04 23:15 15.42441 69.27190 34844 ft 477 kts 122°
2026-05-04 23:16 15.38790 69.32894 34839 ft 477 kts 123°
2026-05-04 23:16 15.35120 69.38626 34839 ft 477 kts 122°
2026-05-04 23:17 15.31445 69.44359 34840 ft 476 kts 123°
2026-05-04 23:17 15.27782 69.50070 34840 ft 476 kts 123°
2026-05-04 23:18 15.24110 69.55789 34840 ft 477 kts 123°
2026-05-04 23:18 15.20437 69.61509 34841 ft 477 kts 123°
2026-05-04 23:19 15.16779 69.67200 34841 ft 478 kts 123°
2026-05-04 23:19 15.13095 69.72928 34838 ft 476 kts 122°
2026-05-04 23:20 15.09448 69.78668 34841 ft 478 kts 123°
2026-05-04 23:20 15.05802 69.84416 34840 ft 477 kts 122°
2026-05-04 23:21 15.02165 69.90143 34839 ft 477 kts 123°
2026-05-04 23:21 14.98524 69.95874 34839 ft 476 kts 122°
2026-05-04 23:22 14.94908 70.01562 34840 ft 477 kts 123°
2026-05-04 23:22 14.91256 70.07300 34839 ft 476 kts 122°
2026-05-04 23:23 14.87613 70.13020 34843 ft 477 kts 122°
2026-05-04 23:23 14.83961 70.18751 34844 ft 476 kts 123°
2026-05-04 23:24 14.80311 70.24475 34840 ft 477 kts 122°
2026-05-04 23:24 14.76654 70.30204 34836 ft 477 kts 123°
2026-05-04 23:25 14.73024 70.35889 34840 ft 476 kts 122°
2026-05-04 23:25 14.69368 70.41609 34843 ft 476 kts 123°
2026-05-04 23:26 14.65724 70.47307 34843 ft 476 kts 123°
2026-05-04 23:26 14.62069 70.53018 34846 ft 476 kts 123°
2026-05-04 23:27 14.58416 70.58723 34844 ft 476 kts 123°
2026-05-04 23:27 14.54754 70.64435 34846 ft 476 kts 123°
2026-05-04 23:28 14.51100 70.70133 34845 ft 476 kts 123°
2026-05-04 23:28 14.47464 70.75796 34847 ft 477 kts 123°
2026-05-04 23:29 14.43806 70.81492 34843 ft 476 kts 123°
2026-05-04 23:29 14.40145 70.87190 34846 ft 477 kts 123°
2026-05-04 23:30 14.36482 70.92886 34847 ft 476 kts 123°
2026-05-04 23:30 14.32858 70.98612 34849 ft 477 kts 123°
2026-05-04 23:31 14.29240 71.04339 34849 ft 476 kts 123°
2026-05-04 23:31 14.25622 71.10063 34848 ft 476 kts 123°
2026-05-04 23:32 14.22023 71.15752 34848 ft 476 kts 123°
2026-05-04 23:32 14.18407 71.21465 34848 ft 476 kts 123°
2026-05-04 23:33 14.14780 71.27190 34848 ft 476 kts 123°
2026-05-04 23:33 14.11158 71.32903 34847 ft 477 kts 123°
2026-05-04 23:34 14.07530 71.38622 34848 ft 477 kts 123°
2026-05-04 23:34 14.03901 71.44339 34847 ft 476 kts 123°
2026-05-04 23:35 14.00269 71.50056 34849 ft 477 kts 123°
2026-05-04 23:35 13.96664 71.55726 34850 ft 476 kts 123°
2026-05-04 23:36 13.93026 71.61446 34849 ft 478 kts 123°
2026-05-04 23:36 13.89387 71.67163 34846 ft 477 kts 123°
2026-05-04 23:37 13.85746 71.72879 34852 ft 477 kts 123°
2026-05-04 23:37 13.82109 71.78584 34846 ft 476 kts 123°
2026-05-04 23:38 13.78489 71.84259 34850 ft 477 kts 123°
2026-05-04 23:38 13.74856 71.89951 34846 ft 476 kts 123°
2026-05-04 23:39 13.71207 71.95665 34849 ft 478 kts 123°
2026-05-04 23:39 13.67590 72.01406 34847 ft 477 kts 122°
2026-05-04 23:40 13.64025 72.07178 34850 ft 478 kts 122°
2026-05-04 23:40 13.60472 72.12914 34850 ft 477 kts 122°
2026-05-04 23:41 13.56895 72.18684 34847 ft 479 kts 122°
2026-05-04 23:41 13.53319 72.24449 34845 ft 478 kts 122°
2026-05-04 23:42 13.49741 72.30212 34845 ft 480 kts 123°
2026-05-04 23:42 13.46150 72.35994 34847 ft 479 kts 122°
2026-05-04 23:43 13.42564 72.41763 34845 ft 480 kts 122°
2026-05-04 23:43 13.38972 72.47538 34846 ft 479 kts 122°
2026-05-04 23:44 13.35405 72.53269 34844 ft 479 kts 123°
2026-05-04 23:44 13.31814 72.59035 34847 ft 479 kts 123°
2026-05-04 23:45 13.28223 72.64797 34842 ft 480 kts 123°
2026-05-04 23:45 13.24614 72.70585 34845 ft 481 kts 123°
2026-05-04 23:46 13.21017 72.76349 34848 ft 480 kts 123°
2026-05-04 23:46 13.17410 72.82125 34848 ft 480 kts 123°
2026-05-04 23:47 13.13803 72.87898 34846 ft 480 kts 123°
2026-05-04 23:47 13.10193 72.93671 34850 ft 481 kts 123°
2026-05-04 23:48 13.06607 72.99402 34844 ft 480 kts 123°
2026-05-04 23:48 13.02995 73.05173 34849 ft 481 kts 123°
2026-05-04 23:49 12.99382 73.10939 34839 ft 480 kts 123°
2026-05-04 23:49 12.95768 73.16704 34845 ft 481 kts 123°
2026-05-04 23:50 12.92764 73.21494 34840 ft 480 kts 123°
2026-05-04 23:50 12.89154 73.27247 34842 ft 481 kts 123°
2026-05-04 23:51 12.85530 73.33017 34844 ft 480 kts 123°
2026-05-04 23:51 12.81918 73.38764 34841 ft 480 kts 123°
2026-05-04 23:52 12.78305 73.44513 34843 ft 479 kts 123°
2026-05-04 23:52 12.74692 73.50253 34843 ft 479 kts 123°
2026-05-04 23:53 12.71077 73.55997 34844 ft 480 kts 123°
2026-05-04 23:53 12.67485 73.61700 34842 ft 479 kts 123°
2026-05-04 23:54 12.63860 73.67452 34842 ft 479 kts 123°
2026-05-04 23:54 12.60249 73.73177 34843 ft 476 kts 123°
2026-05-04 23:55 12.56665 73.78859 34842 ft 474 kts 124°
2026-05-04 23:56 12.51310 73.87336 34845 ft 474 kts 124°
2026-05-04 23:56 12.47724 73.93011 34843 ft 474 kts 123°
2026-05-04 23:57 12.44139 73.98682 34841 ft 474 kts 124°
2026-05-04 23:57 12.40553 74.04349 34848 ft 473 kts 124°
2026-05-04 23:58 12.37001 74.09959 34853 ft 473 kts 124°
2026-05-04 23:58 12.33423 74.15608 34850 ft 473 kts 123°
2026-05-04 23:59 12.29840 74.21260 34848 ft 473 kts 124°
2026-05-04 23:59 12.26226 74.26864 34845 ft 470 kts 128°
2026-05-05 00:00 12.22257 74.32182 34851 ft 471 kts 128°
2026-05-05 00:00 12.18353 74.37501 34531 ft 469 kts 128°
2026-05-05 00:00 12.16400 74.40168 34086 ft 467 kts 128°
2026-05-05 00:01 12.14438 74.42849 32930 ft 477 kts 128°
2026-05-05 00:01 12.12426 74.45594 31867 ft 485 kts 128°
2026-05-05 00:01 12.10410 74.48345 30882 ft 480 kts 128°
2026-05-05 00:01 12.08415 74.51067 29917 ft 476 kts 128°
2026-05-05 00:02 12.06440 74.53760 28831 ft 472 kts 128°
2026-05-05 00:02 12.04479 74.56433 27786 ft 468 kts 128°
2026-05-05 00:02 12.02536 74.59080 26780 ft 463 kts 128°
2026-05-05 00:02 12.00611 74.61704 25818 ft 458 kts 128°
2026-05-05 00:03 11.98705 74.64300 24912 ft 453 kts 129°
2026-05-05 00:03 11.96845 74.66834 24044 ft 449 kts 129°
2026-05-05 00:03 11.94986 74.69364 23208 ft 443 kts 129°
2026-05-05 00:03 11.93153 74.71860 22485 ft 432 kts 129°
2026-05-05 00:04 11.91378 74.74277 21965 ft 417 kts 129°
2026-05-05 00:04 11.89663 74.76611 21441 ft 405 kts 129°
2026-05-05 00:04 11.87987 74.78890 20936 ft 402 kts 129°
2026-05-05 00:04 11.86287 74.81201 20380 ft 408 kts 129°
2026-05-05 00:05 11.84577 74.83526 19860 ft 410 kts 129°
2026-05-05 00:05 11.82869 74.85847 19347 ft 408 kts 129°
2026-05-05 00:05 11.81167 74.88161 18835 ft 407 kts 129°
2026-05-05 00:05 11.79469 74.90467 18323 ft 406 kts 128°
2026-05-05 00:06 11.77772 74.92774 17766 ft 404 kts 128°
2026-05-05 00:06 11.76106 74.95036 17236 ft 402 kts 128°
2026-05-05 00:06 11.74433 74.97307 16732 ft 399 kts 128°
2026-05-05 00:06 11.72772 74.99561 16234 ft 396 kts 128°
2026-05-05 00:07 11.71122 75.01799 15753 ft 394 kts 127°
2026-05-05 00:07 11.69482 75.04025 15296 ft 390 kts 127°
2026-05-05 00:07 11.67857 75.06230 14841 ft 388 kts 127°
2026-05-05 00:07 11.66240 75.08423 14383 ft 385 kts 126°
2026-05-05 00:08 11.64629 75.10605 13907 ft 384 kts 126°
2026-05-05 00:08 11.63030 75.12772 13448 ft 381 kts 126°
2026-05-05 00:08 11.61440 75.14927 12957 ft 379 kts 126°
2026-05-05 00:08 11.59863 75.17065 12509 ft 375 kts 126°
2026-05-05 00:09 11.58320 75.19155 12074 ft 372 kts 126°
2026-05-05 00:09 11.56771 75.21253 11654 ft 368 kts 126°
2026-05-05 00:09 11.55232 75.23337 11242 ft 365 kts 126°
2026-05-05 00:09 11.53727 75.25376 11050 ft 354 kts 125°
2026-05-05 00:10 11.52267 75.27352 10874 ft 344 kts 125°
2026-05-05 00:10 11.50842 75.29279 10715 ft 334 kts 125°
2026-05-05 00:10 11.49461 75.31148 10556 ft 325 kts 125°
2026-05-05 00:10 11.48120 75.32962 10406 ft 316 kts 125°
2026-05-05 00:11 11.46815 75.34727 10258 ft 307 kts 125°
2026-05-05 00:11 11.45546 75.36444 10125 ft 298 kts 125°
2026-05-05 00:11 11.44315 75.38108 9983 ft 290 kts 125°
2026-05-05 00:11 11.43112 75.39735 9756 ft 285 kts 125°
2026-05-05 00:12 11.41935 75.41325 9432 ft 284 kts 125°
2026-05-05 00:12 11.40749 75.42927 9111 ft 282 kts 125°
2026-05-05 00:12 11.39568 75.44523 8822 ft 280 kts 125°
2026-05-05 00:12 11.38406 75.46093 8599 ft 275 kts 125°
2026-05-05 00:13 11.37261 75.47640 8338 ft 272 kts 125°
2026-05-05 00:13 11.36127 75.49172 8069 ft 269 kts 125°
2026-05-05 00:13 11.35004 75.50689 7799 ft 267 kts 126°
2026-05-05 00:13 11.33886 75.52198 7513 ft 266 kts 126°
2026-05-05 00:14 11.32774 75.53700 7238 ft 265 kts 126°
2026-05-05 00:14 11.31650 75.55217 6966 ft 271 kts 126°
2026-05-05 00:14 11.30504 75.56764 6673 ft 275 kts 126°
2026-05-05 00:14 11.29348 75.58323 6373 ft 277 kts 126°
2026-05-05 00:15 11.28187 75.59890 6061 ft 277 kts 126°
2026-05-05 00:15 11.27028 75.61453 5743 ft 276 kts 126°
2026-05-05 00:15 11.25875 75.63010 5445 ft 275 kts 126°
2026-05-05 00:15 11.24745 75.64533 5232 ft 270 kts 126°
2026-05-05 00:16 11.23624 75.66045 5103 ft 262 kts 126°
2026-05-05 00:16 11.22543 75.67503 4972 ft 254 kts 127°
2026-05-05 00:16 11.21494 75.68917 4832 ft 246 kts 127°
2026-05-05 00:16 11.20481 75.70282 4693 ft 237 kts 127°
2026-05-05 00:17 11.19501 75.71604 4559 ft 233 kts 127°
2026-05-05 00:17 11.18511 75.72937 4430 ft 238 kts 127°
2026-05-05 00:17 11.17687 75.74393 4204 ft 238 kts 104°
2026-05-05 00:17 11.17335 75.76042 3893 ft 239 kts 102°
2026-05-05 00:18 11.16953 75.77700 3566 ft 241 kts 102°
2026-05-05 00:18 11.16609 75.79347 3299 ft 241 kts 99°
2026-05-05 00:18 11.16287 75.81036 2960 ft 242 kts 99°
2026-05-05 00:18 11.15979 75.82709 2669 ft 236 kts 99°
2026-05-05 00:19 11.15681 75.84325 2343 ft 229 kts 99°
2026-05-05 00:19 11.15390 75.85893 2039 ft 222 kts 99°
2026-05-05 00:19 11.15117 75.87373 1768 ft 205 kts 99°
2026-05-05 00:19 11.14866 75.88726 1511 ft 185 kts 99°
2026-05-05 00:20 11.14642 75.89935 1310 ft 163 kts 99°
2026-05-05 00:20 11.14437 75.91043 1080 ft 156 kts 99°
2026-05-05 00:20 11.14242 75.92113 880 ft 151 kts 99°
2026-05-05 00:20 11.14050 75.93149 678 ft 148 kts 99°
2026-05-05 00:21 11.13868 75.94160 469 ft 143 kts 99°
2026-05-05 00:21 11.13692 75.95077 407 ft 111 kts 101°
2026-05-05 00:21 11.13588 75.95630 410 ft 58 kts 101°
2026-05-05 00:21 11.13529 75.95942 397 ft 41 kts 100°
2026-05-05 00:22 11.13482 75.96191 382 ft 36 kts 101°
2026-05-05 00:22 11.13475 75.96333 376 ft 13 kts 85°
2026-05-05 00:22 11.13455 75.96357 377 ft 0 kts 179°
2026-05-05 00:22 11.13447 75.96349 378 ft 3 kts 251°
2026-05-05 00:23 11.13460 75.96302 378 ft 11 kts 283°
2026-05-05 00:23 11.13475 75.96223 380 ft 11 kts 281°
2026-05-05 00:23 11.13489 75.96148 384 ft 10 kts 281°
2026-05-05 00:23 11.13502 75.96077 390 ft 11 kts 281°
2026-05-05 00:24 11.13520 75.95986 393 ft 16 kts 281°
2026-05-05 00:24 11.13545 75.95853 400 ft 22 kts 281°
2026-05-05 00:24 11.13575 75.95695 409 ft 22 kts 281°
2026-05-05 00:24 11.13603 75.95544 410 ft 22 kts 281°
2026-05-05 00:25 11.13635 75.95378 408 ft 25 kts 281°
2026-05-05 00:25 11.13665 75.95230 408 ft 16 kts 292°
2026-05-05 00:25 11.13732 75.95210 406 ft 10 kts 11°
2026-05-05 00:25 11.13786 75.95207 403 ft 7 kts 336°
2026-05-05 00:26 11.13824 75.95207 405 ft 5 kts 12°
2026-05-05 00:26 11.13852 75.95213 405 ft 2 kts 11°
2026-05-05 00:26 11.13855 75.95214 405 ft 0 kts 11°